記事タイトル:Comet C/2004 U1 (LINEAR) 

最新の情報は「更新」や「再読み込み」ボタンを押してリロードしてご覧ください。

書き込み欄へ  ヘルプ
お名前: 佐藤 裕久   
LINEARプロジェクトによって発見された小惑星状の天体は、他のCCD観測者によってわずかな
コマが確認された。10月21.2日UT、P. Birtwhistle (Great Shefford, 英国; 0.30-m f/6.3
反射)は、視直径が9″の拡散してp.a.320°に12″の広がっている尾のようなものを見ている。

発見位置は次のとおり、

     2004 UT             R.A. (2000) Decl.       Mag.
     Oct. 19.41854    8 56 12.68   +20 30 21.8   19.4

LONEOSによる10月16日の発見前観測があった。
軌道要素と位置推算表は次のとおり、

Orbital elements:
    C/2004 U1 (LINEAR)
T 2004 Dec. 4.319 TT                                    MPC
q   2.68042              (2000.0)            P               Q
                   Peri.   18.566       -0.174357       +0.688271
                   Node   112.608       +0.778902       -0.341117
e   1.0            Incl.  130.288       +0.602422       +0.640252
From 19 observations 2004 Oct. 16-21.

Ephemeris:
    C/2004 U1 (LINEAR)
Date    TT    R. A. (2000) Decl.     Delta      r     Elong.  Phase   m1
2004 10 12    08 55.88   +18 42.1    2.954    2.738    67.8    19.7  17.7
2004 10 22    08 56.03   +21 12.3    2.738    2.719    78.4    21.0  17.5
2004 11 01    08 53.56   +24 19.5    2.518    2.703    89.8    21.5  17.3
2004 11 11    08 47.38   +28 13.0    2.305    2.692   102.0    21.1  17.1
2004 11 21    08 35.82   +33 00.1    2.110    2.684   115.2    19.4  16.9

(IAUC 8421、MPEC 2004-U25)
[2004年10月22日 23時1分47秒]

この記事への返信をどうぞ。 自動改行されませんので、適当に改行を入れてください。
氏名
E-mail URL



記事一覧に戻る